Regional Weather Roundup
Issued by NWS Cleveland, OH

Home | Current Version | Previous Version | Text Only | Print | Product List | Glossary Off
Versions: 1 2 3 4 5 6 7 8 9 10 11 12 13 14 15 16 17 18 19 20 21 22 23 24 25 26 27 28 29 30 31 32 33 34 35 36 37 38 39 40 41 42 43 44 45 46 47 48 49 50

000
ASUS41 KCLE 060002
RWRCLE
OHIO REGIONAL WEATHER ROUNDUP
NATIONAL WEATHER SERVICE CLEVELAND, OH
800 PM EDT TUE MAY 05 2015

NOTE: "FAIR" INDICATES FEW OR NO CLOUDS BELOW 12,000 FEET WITH NO
SIGNIFICANT WEATHER AND/OR OBSTRUCTIONS TO VISIBILITY.

OHZ001>008-015>018-024>027-034-035-043-044-060100-
   NORTHWEST OHIO

CITY           SKY/WX    TMP DP  RH WIND       PRES   REMARKS
DEFIANCE       CLOUDY    56  52  86 NE10G20   30.21S FOG
FINDLAY        MOCLDY    59  52  77 NE15      30.19F
TOLEDO EXPRESS CLOUDY    53  47  79 E12       30.23S
TOLEDO EXEC    CLOUDY    53  47  79 NE9       30.24F
LIMA           CLEAR     69  63  81 NE9       30.17S HAZE
$$

OHZ009>014-019>023-028>033-038-089-060100-
   NORTHEAST OHIO

CITY           SKY/WX    TMP DP  RH WIND       PRES   REMARKS
CLE-HOPKINS    CLOUDY    53  49  86 NE6       30.26F FOG
CLE-LAKEFRONT  MOCLDY    53  50  89 NE8       30.23F FOG
CUY CO. ARPT   CLOUDY    55  54  94 E7        30.24F FOG
LORAIN-ELYRIA  CLOUDY    53  50  89 E9        30.24S FOG
ASHTABULA      LGT RAIN  54  51  90 N3        30.26R FOG
AKRON-CANTON   CLOUDY    71  60  68 N3        30.22R
WOOSTER        CLOUDY    62  59  90 N8        30.22S FOG
MANSFIELD      PTCLDY    64  63  96 N8        30.21F FOG
YOUNGSTOWN     CLOUDY    65  61  87 N10       30.24R FOG
$$

OHZ042-051>053-060>062-070>072-077>081-060100-
  SOUTHWEST OHIO

CITY           SKY/WX    TMP DP  RH WIND       PRES   REMARKS
CINC-COVINGTON PTCLDY    77  53  43 S5        30.18S
CINC-LUNKEN    CLEAR     74  57  55 S7        30.17S
HAMILTON       CLEAR     81  52  36 S3        30.17S
DAYTON         PTCLDY    76  55  48 SW6       30.18S
WRIGHT-PAT AFB NOT AVBL
DAYTON GENERAL CLEAR     78  51  38 SW6       30.17S
WILMINGTON     PTCLDY    76  52  43 SW6       30.18S
$$

OHZ036-037-039>041-045>050-054>059-063>069-073>076-082>088-060100-
  CENTRAL AND SOUTHEAST OHIO

CITY           SKY/WX    TMP DP  RH WIND       PRES   REMARKS
COLUMBUS       PTCLDY    75  55  49 W6        30.17S
OSU AIRPORT    PTCLDY    75  56  51 W5        30.18R
BOLTON FIELD   NOT AVBL
RICKENBACK AFB NOT AVBL
NEWARK         PTCLDY    77  57  50 CALM      30.17S
MARION         PTCLDY    70  62  76 NE6       30.18S
LANCASTER      CLEAR     75  53  46 W3        30.18S
ZANESVILLE     PTCLDY    77  55  46 CALM      30.18S
NEW PHILLY     CLOUDY    71  60  68 CALM      30.21F
$$


USA.gov is the U.S. government's official web portal to all federal, state and local government web resources and services.